Location: Riddle Hill
(39.7867°N, 89.7645°W)
Time: 21:30:32
(UTC+00:00)

Cosmos 1825 Rocket - Pass Details

Date: 29 October 2020
Orbit: 603 x 631 km, 82.5° (Epoch: 30 November)

Event Time Altitude Azimuth Distance (km) Brightness Sun altitude
Rises 23:38:14 0° 347° (NNW) 2,919 7.0 -8.0°
Reaches altitude 10° 23:40:31 10° 344° (NNW) 2,003 6.3 -8.4°
Maximum altitude 23:44:51 56° 266° (W) 743 4.4 -9.2°
Drops below altitude 10° 23:49:07 10° 189° (S) 1,971 6.4 -10.0°
Sets 23:51:21 0° 185° (S) 2,867 7.2 -10.4°
